User: anonymous
Location: Albany
(35.0000°S, 118.0000°E)
Time: 00:23:55
(UTC-04:00)
Language:

Cosmos 1758 Rocket - Orbit

View from above orbital plane
View from above orbital plane
View from above satellite
View from above satellite

Ground track
Ground track

The orbit data is extracted from the following two-line orbital elements,

1 16792U 86046B   14292.51333378  .00000902  00000-0  10864-3 0  6079
2 16792 082.4861 036.4752 0023278 249.7197 176.9417 14.82657768530876
Epoch (UTC): 19 October 2014 12:19:12
Eccentricity: 0.0023278
inclination: 82.4861°
perigee height: 604 km
apogee height: 637 km
right ascension of ascending node: 36.4752°
argument of perigee: 249.7197°
revolutions per day: 14.82657768
mean anomaly at epoch: 176.9417°
orbit number at epoch: 53087

The dashed part of the orbit path shows where the satellite is in the earth's shadow,  

DLR